Regional Weather Roundup
Issued by NWS

Home | Current Version | Previous Version | Graphics & Text | Print | Product List | Glossary On
Versions: 1 2 3 4 5 6 7 8 9 10 11 12 13 14 15 16 17 18 19 20 21 22 23 24 25 26 27 28 29 30 31 32 33 34 35 36 37 38 39 40 41 42 43 44 45 46 47 48 49 50
000
ASUS43 KMKX 231100
RWRWI

WISCONSIN REGIONAL WEATHER ROUNDUP
NATIONAL WEATHER SERVICE MILWAUKEE/SULLIVAN WI
600 AM CDT TUE SEP 23 2014

NOTE: "FAIR" INDICATES FEW OR NO CLOUDS BELOW 12,000 FEET WITH NO
SIGNIFICANT WEATHER AND/OR OBSTRUCTIONS TO VISIBILITY.

WIZ001-002-006>008-014>016-023>028-231200-
NORTHWEST WISCONSIN

CITY           SKY/WX    TMP DP  RH WIND       PRES   REMARKS
SUPERIOR ARPT  CLEAR     43  43 100 CALM      30.17S
ASHLAND        CLEAR     46  45  96 S5        30.20R
HAYWARD        CLEAR     41  40  96 CALM      30.21R
SIREN          CLEAR     45  43  94 CALM      30.20R
CUMBERLAND       N/A     41  41 100 CALM      30.21S FOG
RICE LAKE      FOG       43  43  98 CALM      30.23R VSB 1/2
CHETEK         SUNNY     44  44 100 CALM      30.22S
LADYSMITH      CLEAR     45  44  97 CALM      30.24R
EAU CLAIRE     FOG       43  41  93 CALM      30.22R VSB 3/4
MENOMONIE      FOG       46  45  99 E3        30.23R VSB<1/4
NEW RICHMOND   CLEAR     48  47  97 CALM      30.21R
OSCEOLA        CLEAR     46  46 100 E5        30.23R
$$

WIZ003>005-009-010-017-018-231200-
NORTH CENTRAL WISCONSIN

CITY           SKY/WX    TMP DP  RH WIND       PRES   REMARKS
MANITOWISH WTR FOG       40  40 100 CALM      30.22S VSB 1/4
ARBOR VITAE    FOG       44  43  95 CALM      30.23R VSB 1
WOODRUFF       FOG       44  43  95 CALM      30.23R VSB 1
RHINELANDER    FOG       42  42 100 CALM      30.25R VSB 1/4
EAGLE RIVER    FOG       39  39 100 CALM      30.22S VSB 1/4
LAND O LAKES   CLEAR     37  37 100 CALM      30.23R
PHILLIPS       CLEAR     42  42 100 CALM      30.23S FOG
TOMAHAWK       CLEAR     40  39  97 CALM      30.25R
MEDFORD          N/A     40  40 100 CALM      30.24R FOG
MERRILL        FOG       38  38 100 CALM      30.25R VSB 1/2
$$

WIZ029-030-035-036-043>047-231200-
CENTRAL WISCONSIN

CITY           SKY/WX    TMP DP  RH WIND       PRES   REMARKS
WAUSAU         CLEAR     44  44 100 E3        30.24R
MOSINEE        CLEAR     43  43 100 CALM      30.26R
MARSHFIELD     FOG       47  45  93 CALM      30.25R VSB 1/2
STEVENS POINT  PTCLDY    39  38  97 CALM      30.26R
WAUPACA        CLEAR     46  45  95 CALM      30.26R
WAUTOMA        PTCLDY    41  39  93 CALM      30.27R
WISC RAPIDS    PTCLDY    42  42 100 CALM      30.27S
CAMP DOUGLAS   CLEAR     41  41 100 SE3       30.25S FOG
$$

WIZ011>013-019>022-031-037>040-048>050-231200-
NORTHEAST WISCONSIN

CITY           SKY/WX    TMP DP  RH WIND       PRES   REMARKS
ANTIGO         FOG       41  41 100 CALM      30.25S VSB 1/2
SHAWANO        SUNNY     47  46  95 CALM      30.25S
OCONTO         SUNNY     47  47 100 CALM      30.22S
STURGEON BAY   CLEAR     54  48  82 SW6       30.24R
GREEN BAY      CLEAR     45  44  97 S3        30.25R FOG
MANITOWOC      NOT AVBL
APPLETON       PTCLDY    48  48 100 W8        30.26R
CLINTONVILLE   PTCLDY    43  43 100 CALM      30.25S
OSHKOSH        CLEAR     49  47  93 S5        30.25S
$$

WIZ032>034-041-042-053>061-231200-
SOUTHWEST WISCONSIN

CITY           SKY/WX    TMP DP  RH WIND       PRES   REMARKS
LA CROSSE      FOG       51  50  96 SE6       30.25R VSB 1
SPARTA         FOG       39  39 100 CALM      30.26S VSB 1/2
VIROQUA        SUNNY     51  49  92 S3        30.25F
BOSCOBEL       FOG       45  44  97 CALM      30.28S VSB 1/4
PRAIRIE DU CHI CLEAR     46  45  95 SE3       30.26S
PLATTEVILLE    CLEAR     48  46  90 SE5       30.29R
$$

WIZ056-057-062-063-064-067-068-231200-
SOUTH CENTRAL WISCONSIN

CITY           SKY/WX    TMP DP  RH WIND       PRES   REMARKS
REEDSBURG      SUNNY     42  42  99 CALM      30.26S
BARABOO/DELLS  CLEAR     49  46  87 CALM      30.27R
LONE ROCK      NOT AVBL
MINERAL POINT  CLEAR     50  46  87 S3        30.27S
MADISON        CLEAR     46  44  93 CALM      30.28R
MIDDLETON        N/A     44  44  99 CALM      30.28S VSB 1
WATERTOWN      CLEAR     43  43 100 CALM      30.28R
MONROE         CLEAR     48  45  87 SW7       30.28R
JANESVILLE     CLEAR     46  45  93 CALM      30.28S
$$

WIZ051-052-058>065-066-070>072-231200-
SOUTHEAST WISCONSIN

CITY           SKY/WX    TMP DP  RH WIND       PRES   REMARKS
MILWAUKEE      CLEAR     54  44  69 VRB3      30.28S
WAUKESHA       CLEAR     43  43 100 S3        30.29S
MILWAUKEE/TIMM CLEAR     46  43  87 CALM      30.28S
RACINE         CLEAR     51  45  79 W5        30.30R
BURLINGTON     CLEAR     40  40 100 CALM      30.29R FOG
KENOSHA        CLEAR     44  43  96 SW5       30.30R
FOND DU LAC    CLEAR     47  44  90 S5        30.27R
SHEBOYGAN      CLEAR     44  43  96 CALM      30.27R
WEST BEND      CLEAR     43  41  93 CALM      30.27S
JUNEAU         CLEAR     44  43  97 S3        30.29R
$$

LSZ147-162-231200-
LAKE SUPERIOR

STATION/POSITION TIME  TEMP    WIND        PRES    WAVE
                       AIR SEA DIR/SP/G            HT/PER
                 (UTC) (F)     (DEG/KT/KT) (MB)    (FT/S)
W MID LAKE BUOY  0950   52 48  240/ 12/ 14 1020.8R   2/ 4
DEVILS ISLAND    1000   56     230/ 12/ 13 1021.6R
PORT WING        1000   53     140/  2/  5 1022.0R
SAXON HARBOR     1040   54     190/  5/  7 1022.4R
$$

LMZ867-665-643>646-231200-
LAKE MICHIGAN

STATION/POSITION TIME  TEMP    WIND        PRES    WAVE
                       AIR SEA DIR/SP/G            HT/PER
                 (UTC) (F)     (DEG/KT/KT) (MB)    (FT/S)
CHAMBERS ISLAND  1000   55     210/  4/  9 1023.0R
S GREEN BAY BUOY 1000   57                 1024.4R
N MID LAKE BUOY  0950   57 57  240/ 12/ 14 1022.2R   2/ 5
NORTHPORT PIER   1000   57     250/  3/ 11 1022.4R
SISTER BAY       0942          270/  7/  8   N/A
KEWAUNEE LAKESHO 1000   51     300/  6/  7 1022.7R
SHEBOYGAN LAKESH 1000   53 54  260/ 10/ 10 1024.8R
PORT WASHINGTON  1000   54     270/  5/  7 1025.1
ATWATER BUOY     1000   57     240/ 12/ 14 1025.7R
S MID LAKE BUOY  0950   61 62  230/ 12/ 14 1025.2R   2/ 4
KENOSHA   LAKESH 1000   54     250/  9/ 11 1025.1R
$$

TC  - TEMPERATURE IN CELSIUS
VSB - VISIBILITY IN STATUTE MILES
WCI - WIND CHILL INDEX
HX  - HEAT INDEX




USA.gov is the U.S. government's official web portal to all federal, state and local government web resources and services.